Powrót do katalogu

COSMOS 249 DEB

AktywnyLEO
NORAD 3609·DEBRIS·🇷🇺 Russia

Wystrzelony Oct 20, 1968 z Baikonur Cosmodrome

Loading…

Następne Przeloty (najbliższe 24 godziny)

TLE

ŚwieżeSource: Space-Track

Epoka: Sep 14, 2026, 11:19 UTC

1 03609U 68091AB  26257.47174452  .00000639  00000-0  14289-3 0  9993
2 03609  62.2714 263.0000 0725746 156.2823 207.3516 13.66575739717091

Śledź COSMOS 249 DEB w czasie rzeczywistym z AllMySat

Download on the App Store